Location: ?ern� Novina
(50.6762°N, 14.8696°E)
Time: 13:56:35
(UTC+00:00)

USA 281 - Pass Details

Date: 03 March 2021
Orbit: 1076 x 1083 km, 106.0° (Epoch: 03 April)

Event Time Altitude Azimuth Distance (km) Brightness Sun altitude
Exits shadow 19:47:37 31° 42° (NE) 1,789 4.2 -28.8°
Drops below altitude 10° 19:53:06 10° 345° (NNW) 2,928 6.0 -29.6°
Sets 19:55:54 0° 336° (NNW) 3,888 6.9 -30.0°
